This is the latest recevied weather packets stored in our database for station/object EA1BVF-10. If no packets are shown the sender has not sent any weather packets the latest 10 day(s).
| Time | Temp. | Humidity | Pressure | Rain* | Wind** | Luminosity | Snow |
|---|---|---|---|---|---|---|---|
| 1787484703 | 15.56° C | 93% | 1033.6 hPa | - | - | - | - |
| 1787482901 | 15° C | 92% | 1033.8 hPa | - | - | - | - |
| 1787481101 | 15° C | 91% | 1034 hPa | - | - | - | - |
| 1787479304 | 14.44° C | 91% | 1034 hPa | - | - | - | - |
| 1787477498 | 14.44° C | 88% | 1033.7 hPa | - | - | - | - |
| 1787475698 | 14.44° C | 87% | 1033.4 hPa | - | - | - | - |
| 1787473898 | 14.44° C | 87% | 1033.2 hPa | - | - | - | - |
| 1787472098 | 14.44° C | 85% | 1033.1 hPa | - | - | - | - |
| 1787470306 | 14.44° C | 83% | 1033 hPa | - | - | - | - |
| 1787468497 | 15° C | 86% | 1032.5 hPa | - | - | - | - |
| 1787466697 | 15° C | 86% | 1032.4 hPa | - | - | - | - |
| 1787464897 | 15° C | 87% | 1031.9 hPa | - | - | - | - |
| 1787463102 | 15° C | 93% | 1031.9 hPa | - | - | - | - |
| 1787461302 | 15° C | 96% | 1031.8 hPa | - | - | - | - |
| 1787459502 | 15° C | 97% | 1031.6 hPa | - | - | - | - |
| 1787457702 | 15° C | 97% | 1031.7 hPa | - | - | - | - |
| 1787455901 | 15.56° C | 97% | 1031.9 hPa | - | - | - | - |
| 1787454101 | 15.56° C | 98% | 1031.9 hPa | - | - | - | - |
| 1787452301 | 15.56° C | 97% | 1032.2 hPa | - | - | - | - |
| 1787450504 | 15.56° C | 95% | 1032.4 hPa | - | - | - | - |
| 1787448697 | 15.56° C | 95% | 1032.4 hPa | - | - | - | - |
| 1787446897 | 16.11° C | 95% | 1032.6 hPa | - | - | - | - |
| 1787445097 | 16.11° C | 95% | 1032.7 hPa | - | - | - | - |
| 1787443297 | 16.11° C | 94% | 1032.8 hPa | - | - | - | - |
| 1787441497 | 16.67° C | 94% | 1032.9 hPa | - | - | - | - |
* Rain since midnight (hover to see other rain measurements)
** Current wind speed in m/s (hover to see current wind gust speed)